Location: Jetmore
(38.0845°N, 99.8935°W)
Time: 20:57:17
(UTC+00:00)

Cosmos 1092 Rocket - Pass Details

Date: 29 October 2020
Orbit: 955 x 994 km, 83.0° (Epoch: 30 November)

Event Time Altitude Azimuth Distance (km) Brightness Sun altitude
Rises 11:59:39 0° 210° (SSW) 3,626 6.8 -13.0°
Reaches altitude 10° 12:02:22 10° 219° (SW) 2,688 6.0 -12.5°
Maximum altitude 12:07:56 35° 284° (WNW) 1,502 4.5 -11.4°
Drops below altitude 10° 12:13:35 10° 349° (N) 2,726 6.1 -10.3°
Sets 12:16:22 0° 358° (N) 3,683 6.9 -9.7°
